Weather History for Rocky Mount, NC

Change the Weather History Date:

Thursday, April 4, 2013

  Actual Average Record
Temperature  
Mean Temperature 46 °F -  
Max Temperature 53 °F 72 °F 88 °F (1963)
Min Temperature 39 °F 47 °F 30 °F (1962)
Degree Days  
Heating Degree Days 19    
Moisture  
Dew Point 33 °F    
Average Humidity 70    
Maximum Humidity 93    
Minimum Humidity 40    
Precipitation  
Precipitation 0.60 in - - ()
Sea Level Pressure  
Sea Level Pressure 30.21 in    
Wind  
Wind Speed 7 mph (NE)    
Max Wind Speed 13 mph    
Max Gust Speed 21 mph    
Visibility 7 miles    
Events Rain    
Averages and records for this station are not official NWS values.
T = Trace of Precipitation, MM = Missing Value Source: NWS Daily Summary

Daily Weather History Graph

Daily Weather History Graph

Search for Another Location

Airport:

Trip Planner

Search our weather history database for the weather conditions in past years. The results will help you decide how hot, cold, wet, or windy it might be!

Date:

Astronomy

Apr. 04, 2013 Rise Set
Actual Time 6:53 AM EDT 7:36 PM EDT
Civil Twilight 6:27 AM EDT 8:01 PM EDT
Nautical Twilight 5:57 AM EDT 8:32 PM EDT
Astronomical Twilight 5:25 AM EDT 9:03 PM EDT
Moon 3:07 AM EDT (4/4) 2:02 PM EDT (4/4)
Length of Visible Light 13h 34m
Length of Day
12h 42m
Waning Crescent, 34% of the Moon is Illuminated
Apr 4
Waning Crescent
Apr 10
New
Apr 18
First Quarter
Apr 25
Full
May 2
Last Quarter

Hourly Weather History & Observations

Time (EDT) Temp. Windchill Dew Point Humidity Pressure Visibility Wind Dir Wind Speed Gust Speed Precip Events Conditions
12:53 AM 44.1 °F - 32.0 °F 63% 30.29 in 10.0 mi Calm Calm - N/A   Clear
1:53 AM 41.0 °F 35.2 °F 28.9 °F 62% 30.31 in 10.0 mi NNE 9.2 mph - N/A   Clear
2:53 AM 43.0 °F 38.8 °F 32.0 °F 65% 30.32 in 10.0 mi NE 6.9 mph - N/A   Clear
3:53 AM 43.0 °F 38.8 °F 32.0 °F 65% 30.33 in 10.0 mi NE 6.9 mph - N/A   Clear
4:53 AM 41.0 °F 37.1 °F 30.0 °F 65% 30.33 in 10.0 mi NE 5.8 mph - N/A   Clear
5:53 AM 39.9 °F 34.5 °F 28.0 °F 63% 30.35 in 10.0 mi NNE 8.1 mph - N/A   Clear
6:53 AM 39.9 °F 36.7 °F 27.0 °F 60% 30.36 in 10.0 mi NE 4.6 mph - N/A   Clear
7:53 AM 39.9 °F 35.1 °F 26.1 °F 58% 30.38 in 10.0 mi NE 6.9 mph - N/A   Clear
8:53 AM 43.0 °F 37.7 °F 25.0 °F 49% 30.38 in 10.0 mi ENE 9.2 mph - N/A   Clear
9:53 AM 48.0 °F - 27.0 °F 44% 30.36 in 10.0 mi Variable 6.9 mph - N/A   Clear
10:53 AM 48.0 °F - 25.0 °F 41% 30.35 in 10.0 mi ENE 8.1 mph - N/A   Clear
11:53 AM 50.0 °F - 27.0 °F 41% 30.32 in 10.0 mi NE 9.2 mph 17.3 mph N/A   Partly Cloudy
12:53 PM 53.1 °F - 28.9 °F 40% 30.29 in 10.0 mi NE 8.1 mph - N/A   Overcast
1:53 PM 50.0 °F - 30.0 °F 46% 30.24 in 9.0 mi Variable 6.9 mph - 0.00 in Rain Light Rain
2:53 PM 46.9 °F - 39.9 °F 77% 30.23 in 6.0 mi Calm Calm - 0.03 in Rain Light Rain
3:53 PM 45.0 °F 41.2 °F 39.0 °F 80% 30.19 in 6.0 mi NE 6.9 mph - 0.06 in Rain Light Rain
4:53 PM 44.1 °F 39.0 °F 39.0 °F 82% 30.18 in 6.0 mi NE 9.2 mph - 0.07 in Rain Light Rain
5:53 PM 42.1 °F 35.2 °F 37.0 °F 82% 30.17 in 4.0 mi NE 12.7 mph - 0.04 in Rain Light Rain
6:31 PM 41.0 °F 33.9 °F 37.4 °F 87% 30.13 in 5.0 mi NE 12.7 mph 18.4 mph 0.05 in Rain Light Rain
6:53 PM 39.9 °F 32.5 °F 36.0 °F 86% 30.12 in 3.0 mi NE 12.7 mph 19.6 mph 0.08 in Rain Rain
7:53 PM 39.9 °F 32.5 °F 36.0 °F 86% 30.06 in 4.0 mi NE 12.7 mph - 0.06 in Rain Rain
8:18 PM 39.2 °F 31.6 °F 35.6 °F 87% 30.04 in 4.0 mi NE 12.7 mph 17.3 mph 0.05 in Rain Rain
8:39 PM 39.2 °F 31.6 °F 37.4 °F 93% 30.03 in 5.0 mi NNE 12.7 mph - 0.08 in Rain Light Rain
8:53 PM 39.9 °F 32.9 °F 37.0 °F 89% 30.02 in 6.0 mi NE 11.5 mph - 0.09 in Rain Light Rain
9:53 PM 41.0 °F 33.9 °F 37.9 °F 89% 29.98 in 3.0 mi NE 12.7 mph 20.7 mph 0.05 in Rain Rain
10:53 PM 41.0 °F 33.9 °F 39.0 °F 93% 29.94 in 4.0 mi NNE 12.7 mph - 0.04 in Rain Light Rain
11:53 PM 41.0 °F 35.8 °F 39.0 °F 93% 29.93 in 5.0 mi North 8.1 mph - 0.08 in Rain Light Rain